CW4167 Weather Reports


Display with metric or nautical units.
time (UTC)temp
F
wind
direction
speed
MPH
gust
MPH
rain 1hr
in
rain 24hr
in
rain mn
in
humidity
%
barometer
mb
20260904093206 61 196 9.0 18.0 0.01 0.14 0.05 91 999.9
20260904092207 61 185 9.0 15.0 0.01 0.13 0.04 91 1000.2
20260904091705 61 185 9.0 17.0 0.01 0.14 0.04 91 1000.5
20260904091205 61 176 8.0 14.0 0.01 0.14 0.04 91 1000.5
20260904090705 60 181 6.0 13.0 0.02 0.14 0.04 91 1000.5
20260904090207 60 202 6.0 9.0 0.03 0.14 0.04 91 1000.6
20260904085707 60 177 8.0 13.0 0.03 0.14 0.04 91 1000.6
20260904085206 60 171 8.0 14.0 0.03 0.14 0.04 91 1000.8
20260904084705 60 185 7.0 14.0 0.04 0.14 0.04 91 1000.8
20260904084207 60 182 6.0 10.0 0.04 0.14 0.04 91 1000.8
20260904083706 60 173 7.0 10.0 0.04 0.14 0.04 90 1001.0
20260904082707 59 171 7.0 10.0 0.03 0.14 0.03 90 1001.0
20260904080705 59 187 7.0 10.0 0.02 0.13 0.02 90 1001.3
20260904075705 59 182 6.0 10.0 0.01 0.12 0.01 89 1001.2
20260904074706 59 182 9.0 13.0 0.00 0.11 0.00 89 1001.3
20260904074205 59 175 7.0 13.0 0.00 0.11 0.00 89 1001.5
20260904073207 59 172 8.0 13.0 0.00 0.13 0.00 89 1001.3
20260904072706 59 156 6.0 13.0 0.00 0.13 0.00 89 1001.7
20260904070705 58 165 5.0 13.0 0.00 0.14 0.00 89 1001.7
20260904065705 58 162 6.0 10.0 0.00 0.14 0.00 89 1001.9
20260904064706 58 167 6.0 7.0 0.00 0.14 0.00 89 1002.0
20260904064205 58 174 6.0 10.0 0.00 0.14 0.00 89 1002.2
20260904062705 58 162 5.0 10.0 0.00 0.14 0.00 89 1002.3
20260904061707 58 170 5.0 7.0 0.00 0.14 0.00 88 1002.7
20260904060705 58 157 5.0 8.0 0.00 0.14 0.00 88 1002.7
20260904055707 58 164 3.0 5.0 0.00 0.14 0.00 88 1002.7
20260904055205 58 167 4.0 5.0 0.00 0.14 0.00 87 1002.9
20260904053705 58 190 2.0 5.0 0.00 0.14 0.00 87 1003.2
20260904052705 58 218 3.0 6.0 0.00 0.15 0.00 87 1003.3
20260904052205 58 228 4.0 8.0 0.00 0.15 0.00 86 1003.4
20260904051706 58 231 5.0 8.0 0.00 0.15 0.00 86 1003.3
20260904051205 58 250 3.0 8.0 0.00 0.15 0.00 86 1003.3
20260904050705 58 203 6.0 10.0 0.00 0.15 0.00 86 1003.3
20260904045706 58 249 6.0 13.0 0.00 0.15 0.00 86 1003.5
20260904045205 58 257 6.0 9.0 0.00 0.15 0.00 86 1003.5
20260904044707 58 233 6.0 10.0 0.00 0.15 0.00 86 1003.4
20260904042205 58 230 6.0 10.0 0.00 0.15 0.00 86 1003.5
20260904035205 59 230 6.0 13.0 0.00 0.16 0.00 86 1003.9
20260904034206 59 281 5.0 9.0 0.00 0.16 0.00 86 1004.1
20260904033704 59 207 3.0 6.0 0.00 0.16 0.00 86 1004.1
20260904031705 59 223 6.0 8.0 0.00 0.16 0.00 86 1004.3
20260904030704 59 257 5.0 7.0 0.00 0.16 0.00 85 1004.4
20260904025204 60 257 5.0 13.0 0.00 0.16 0.00 85 1004.3
20260904024704 60 269 7.0 10.0 0.00 0.16 0.00 85 1004.3
20260904022704 60 246 8.0 16.0 0.00 0.16 0.00 84 1004.5
20260904021204 60 248 7.0 16.0 0.00 0.16 0.00 85 1004.4
20260904020704 60 247 10.0 17.0 0.00 0.16 0.00 85 1004.7
20260904020204 60 261 10.0 21.0 0.00 0.16 0.00 85 1004.7
20260904014204 60 252 10.0 17.0 0.00 0.16 0.00 85 1004.8
20260904013204 60 247 15.0 20.0 0.00 0.16 0.00 85 1004.7
20260904012704 60 247 12.0 17.0 0.00 0.16 0.00 85 1004.7
20260904011706 60 263 7.0 16.0 0.00 0.17 0.00 85 1004.6
20260904011205 60 245 7.0 17.0 0.00 0.18 0.00 85 1004.8
20260904010204 60 249 10.0 17.0 0.00 0.19 0.00 85 1004.8
20260904005204 60 244 9.0 15.0 0.00 0.19 0.00 84 1004.8
20260904004704 60 255 6.0 15.0 0.00 0.19 0.00 84 1004.9
20260904003706 60 241 12.0 16.0 0.00 0.19 0.00 84 1005.1
20260904003205 60 229 8.0 17.0 0.00 0.19 0.00 84 1005.0
20260904002206 60 267 10.0 18.0 0.00 0.19 0.00 84 1005.0
20260904001706 60 253 10.0 21.0 0.00 0.19 0.00 84 1005.0
20260904001206 60 248 11.0 17.0 0.00 0.19 0.00 84 1005.0
20260904000705 60 270 10.0 17.0 0.00 0.19 0.00 84 1004.9
20260904000211 60 259 7.0 15.0 0.00 0.19 0.00 84 1004.8
20260903235711 60 256 11.0 16.0 0.00 0.19 0.00 84 1005.3
20260903234710 60 264 9.0 17.0 0.00 0.19 0.00 84 1005.3
20260903233210 61 265 11.0 18.0 0.00 0.19 0.00 85 1005.4
20260903232710 61 243 12.0 21.0 0.00 0.19 0.00 85 1005.1
20260903232210 61 232 7.0 18.0 0.00 0.19 0.00 85 1005.0
20260903231709 61 255 11.0 20.0 0.00 0.19 0.00 85 1005.0
20260903230709 61 255 7.0 17.0 0.00 0.19 0.00 86 1005.1
20260903230212 61 279 11.0 18.0 0.00 0.19 0.00 86 1005.2
20260903224711 61 254 7.0 17.0 0.00 0.19 0.00 87 1005.3
20260903223709 61 245 10.0 18.0 0.00 0.19 0.00 87 1005.3
20260903222209 61 257 12.0 17.0 0.00 0.19 0.00 87 1005.4
20260903215709 61 259 11.0 18.0 0.00 0.19 0.19 87 1005.5
20260903214712 61 262 7.0 15.0 0.00 0.19 0.19 87 1005.4
20260903213711 61 262 6.0 16.0 0.00 0.19 0.19 87 1005.4
20260903211210 61 246 12.0 17.0 0.00 0.20 0.19 87 1005.4
20260903210709 61 250 10.0 14.0 0.00 0.20 0.19 87 1005.4
20260903210209 61 269 12.0 18.0 0.00 0.20 0.19 87 1005.4
20260903205710 61 227 7.0 13.0 0.00 0.20 0.19 87 1005.4
20260903204709 61 251 11.0 20.0 0.00 0.20 0.19 86 1005.4
20260903204210 61 265 7.0 15.0 0.00 0.20 0.19 86 1005.4
20260903203709 62 234 9.0 20.0 0.00 0.20 0.19 86 1005.4
20260903201709 62 243 11.0 20.0 0.00 0.20 0.19 85 1005.4
20260903200710 62 266 12.0 22.0 0.00 0.20 0.19 85 1005.4
20260903194709 63 251 10.0 20.0 0.00 0.20 0.19 85 1005.3
20260903193711 63 267 12.0 20.0 0.00 0.20 0.19 85 1005.3
20260903193209 63 256 12.0 18.0 0.00 0.20 0.19 85 1005.3
20260903192709 63 262 9.0 21.0 0.00 0.20 0.19 85 1005.3
20260903192209 63 264 14.0 20.0 0.00 0.20 0.19 85 1005.3
20260903191211 63 261 17.0 26.0 0.00 0.20 0.19 85 1005.2
20260903190211 63 263 8.0 18.0 0.00 0.20 0.19 86 1005.2
20260903185710 63 260 12.0 23.0 0.00 0.20 0.19 86 1005.2
20260903185209 63 259 10.0 22.0 0.00 0.20 0.19 86 1005.3
20260903184709 63 261 9.0 18.0 0.00 0.20 0.19 86 1005.2
20260903183211 63 249 12.0 17.0 0.00 0.20 0.19 86 1005.0
20260903182209 64 269 10.0 16.0 0.00 0.20 0.19 86 1004.9
20260903180710 64 265 10.0 18.0 0.00 0.20 0.19 86 1004.7
20260903174709 65 245 16.0 23.0 0.00 0.20 0.19 87 1004.5
20260903174209 65 253 15.0 23.0 0.00 0.20 0.19 87 1004.5
20260903173709 65 253 16.0 24.0 0.00 0.20 0.19 87 1004.4
20260903173210 65 244 13.0 22.0 0.00 0.20 0.19 87 1004.4
20260903170209 66 233 10.0 16.0 0.00 0.20 0.19 87 1004.2
20260903164709 67 217 7.0 14.0 0.00 0.20 0.19 88 1004.1
20260903164210 67 251 10.0 16.0 0.00 0.20 0.19 88 1004.1
20260903163709 66 253 8.0 15.0 0.00 0.20 0.19 89 1004.2
20260903163210 66 244 9.0 17.0 0.00 0.20 0.19 89 1004.2
20260903162710 66 238 11.0 21.0 0.00 0.21 0.19 89 1004.2
20260903162209 66 253 8.0 20.0 0.00 0.21 0.19 89 1004.2
20260903161209 66 254 6.0 17.0 0.00 0.21 0.19 90 1004.2
20260903160710 67 243 9.0 15.0 0.00 0.22 0.19 90 1004.2
20260903155711 67 254 12.0 20.0 0.00 0.23 0.19 91 1004.4
20260903155208 66 246 10.0 15.0 0.00 0.23 0.19 92 1004.4
20260903154209 66 256 6.0 16.0 0.00 0.23 0.19 92 1004.4
20260903153709 67 252 8.0 18.0 0.00 0.23 0.19 92 1004.4
20260903152709 67 210 10.0 20.0 0.01 0.23 0.19 93 1004.3
20260903152211 67 238 9.0 16.0 0.01 0.23 0.19 93 1004.3
20260903150209 66 243 13.0 18.0 0.04 0.24 0.19 93 1004.3
20260903145711 65 233 9.0 20.0 0.04 0.24 0.19 93 1004.3
20260903144710 65 252 9.0 17.0 0.04 0.24 0.19 93 1004.3
20260903144208 65 241 7.0 16.0 0.04 0.24 0.19 93 1004.4
20260903143710 65 237 5.0 13.0 0.04 0.26 0.19 93 1004.4
20260903143208 65 243 3.0 8.0 0.04 0.26 0.19 93 1004.4
20260903142709 64 224 1.0 10.0 0.03 0.24 0.18 93 1004.7
20260903141709 64 254 7.0 14.0 0.01 0.26 0.16 92 1004.7
20260903141209 64 213 9.0 14.0 0.00 0.26 0.15 93 1004.7
20260903135208 65 215 7.0 16.0 0.01 0.28 0.15 93 1004.6
20260903134210 64 184 8.0 14.0 0.01 0.28 0.15 93 1004.7
20260903133709 64 189 9.0 17.0 0.01 0.28 0.15 93 1004.7
20260903133209 64 189 7.0 10.0 0.01 0.28 0.15 93 1004.7
20260903132208 64 209 9.0 14.0 0.01 0.28 0.15 93 1004.8
20260903131709 64 216 7.0 14.0 0.01 0.28 0.15 93 1004.7
20260903130710 63 201 6.0 15.0 0.00 0.27 0.14 93 1004.8
20260903130209 63 176 6.0 14.0 0.00 0.27 0.14 93 1004.9
20260903125710 63 176 7.0 13.0 0.00 0.27 0.14 93 1004.9
20260903124709 63 172 5.0 14.0 0.00 0.27 0.14 93 1004.9
20260903124209 63 202 7.0 10.0 0.00 0.27 0.14 93 1004.9
20260903123709 63 183 7.0 15.0 0.00 0.27 0.14 93 1004.9
20260903123209 63 180 7.0 14.0 0.00 0.27 0.14 93 1005.0
20260903122710 63 192 11.0 16.0 0.00 0.27 0.14 93 1005.2
20260903120708 62 188 9.0 16.0 0.02 0.27 0.14 93 1005.2
20260903115709 62 199 8.0 15.0 0.02 0.27 0.14 93 1005.3
20260903115211 62 188 9.0 15.0 0.02 0.27 0.14 93 1005.4
20260903114210 62 170 8.0 14.0 0.02 0.27 0.14 93 1005.6
20260903113709 62 186 10.0 15.0 0.02 0.27 0.14 93 1005.6
20260903113211 62 186 9.0 21.0 0.02 0.27 0.14 93 1005.6
20260903112708 62 192 9.0 16.0 0.02 0.27 0.14 93 1005.6
20260903111210 62 196 8.0 16.0 0.02 0.27 0.14 93 1005.8
20260903110709 62 180 7.0 16.0 0.00 0.24 0.12 93 1005.8
20260903105710 62 176 10.0 18.0 0.01 0.24 0.12 93 1006.1
20260903105209 62 177 9.0 14.0 0.01 0.24 0.12 93 1006.1
20260903104710 62 189 7.0 16.0 0.01 0.24 0.12 93 1006.2
20260903104209 62 176 10.0 16.0 0.01 0.24 0.12 93 1006.3
20260903103210 61 164 8.0 14.0 0.01 0.24 0.12 93 1006.4
20260903102708 61 181 9.0 21.0 0.01 0.24 0.12 93 1006.4
20260903101211 61 190 10.0 16.0 0.02 0.24 0.12 93 1006.6
20260903100209 61 180 10.0 16.0 0.02 0.24 0.12 93 1006.8
20260903095209 61 163 10.0 16.0 0.01 0.23 0.11 93 1007.0
20260903094209 61 162 8.0 15.0 0.01 0.23 0.11 93 1007.3